"startDT [UTC]","vpos","CH4 [ppm]","stdev(CH4) [ppm]","CO2 [ppm]","stdev(CO2) [ppm]","H2O [ppm]","stdev(H2O)","p_LGR [torr]","T_LGR [C]","mt1_LGR [us]","mt2_LGR [us]","T_ECpre [C]","T_EC1 [C]","T_EC2 [C]","p_inlet [hPa]","p_in [hPa]","p_out [hPa]","T_inlet [C]","RH_inlet [%]","dwpt_inlet [C]","T_vent [C]","RH_vent [%]","dwpt_vent [C]","flow_vent [l min-1]","flow_inlet [l min-1]","dwpt_sample [C]","T_room [C]"
2012-04-01 00:00:00,0.0,1.8960,0.0009,401.51,0.23,0.1,4.7,138.12,28.83,24.61,36.32,0.04,-272.74,-272.74,-54,556,-938,23.8,2.0,-28.5,23.8,2.1,-28.1,5.73,2.27,-29.6,27.5
2012-04-01 00:01:00,0.0,1.8971,0.0011,401.27,0.21,2.1,8.9,138.11,28.83,24.62,36.33,0.04,-272.74,-272.74,-53,556,-938,23.9,2.0,-28.6,23.8,2.0,-28.2,5.73,2.49,-29.5,27.8
2012-04-01 00:02:00,0.0,1.8982,0.0010,401.33,0.27,4.4,15.7,138.10,28.84,24.61,36.33,0.04,-272.74,-272.74,-54,556,-937,23.9,2.0,-28.5,23.9,2.0,-28.1,5.73,2.32,-29.4,28.0
2012-04-01 00:03:00,0.0,1.8988,0.0011,401.33,0.20,6.8,14.3,138.10,28.86,24.62,36.33,0.04,-272.74,-272.74,-53,556,-938,23.9,1.9,-28.6,23.9,2.0,-28.2,5.73,2.42,-29.3,28.2
2012-04-01 00:04:00,0.0,1.8987,0.0009,401.33,0.21,9.4,21.3,138.09,28.88,24.62,36.33,0.04,-272.74,-272.74,-54,555,-937,24.0,1.9,-28.7,23.9,2.0,-28.3,5.73,2.38,-29.2,28.4
2012-04-01 00:05:00,0.0,1.8987,0.0011,401.25,0.19,6.4,13.6,138.09,28.91,24.62,36.33,0.04,-272.74,-272.74,-53,556,-937,24.0,1.9,-28.8,24.0,2.0,-28.4,5.73,2.38,-29.0,28.5
2012-04-01 00:06:00,0.0,1.8984,0.0011,401.24,0.25,12.8,26.3,138.08,28.93,24.62,36.34,0.04,-272.74,-272.74,-53,556,-937,24.1,1.9,-28.9,24.0,2.0,-28.4,5.73,2.39,-28.9,28.7
2012-04-01 00:07:00,0.0,1.8978,0.0012,401.30,0.24,17.4,25.0,138.08,28.96,24.62,36.34,0.04,-272.74,-272.74,-53,556,-938,24.1,1.8,-29.1,24.1,1.9,-28.6,5.73,2.40,-28.8,28.7
2012-04-01 00:08:00,0.0,1.8982,0.0011,401.37,0.24,11.9,21.2,138.08,28.99,24.62,36.34,0.04,-272.74,-272.74,-53,556,-938,24.1,1.8,-29.1,24.1,1.9,-28.7,5.73,2.31,-28.7,28.2
2012-04-01 00:09:00,0.0,1.8988,0.0011,401.33,0.19,15.8,25.7,138.08,29.01,24.62,36.34,0.04,-272.74,-272.73,-53,556,-938,24.1,1.8,-29.3,24.1,1.9,-28.8,5.73,2.48,-28.7,27.9
2012-04-01 00:10:00,0.0,1.8990,0.0012,401.29,0.21,18.1,23.3,138.09,29.03,24.62,36.34,0.04,-272.74,-272.74,-53,557,-938,24.1,1.8,-29.4,24.1,1.9,-28.9,5.73,2.46,-28.7,27.6
2012-04-01 00:11:00,0.0,1.8989,0.0009,401.35,0.25,15.2,22.4,138.09,29.04,24.62,36.34,0.04,-272.74,-272.74,-53,557,-938,24.2,1.8,-29.5,24.1,1.9,-28.9,5.73,2.35,-28.8,27.4
2012-04-01 00:12:00,0.0,1.8979,0.0010,401.42,0.22,16.0,25.8,138.09,29.05,24.62,36.33,0.04,-272.73,-272.74,-53,557,-938,24.2,1.8,-29.5,24.1,1.9,-28.9,5.73,2.31,-28.8,27.3
2012-04-01 00:13:00,0.0,1.8983,0.0011,401.36,0.25,16.7,23.5,138.09,29.05,24.62,36.34,0.04,-272.73,-272.74,-53,557,-938,24.2,1.8,-29.4,24.1,1.9,-28.9,5.73,2.40,-28.9,27.2
2012-04-01 00:14:00,0.0,1.8987,0.0009,401.42,0.22,6.5,13.4,138.10,29.06,24.62,36.34,0.04,-272.74,-272.74,-53,558,-938,24.2,1.8,-29.2,24.1,1.9,-28.8,5.73,2.48,-28.9,27.1
2012-04-01 00:15:00,0.0,1.8985,0.0010,401.57,0.19,8.9,18.2,138.10,29.06,24.62,36.33,0.04,-272.74,-272.74,-53,557,-938,24.1,1.8,-29.1,24.1,1.9,-28.7,5.73,2.42,-29.0,27.0
2012-04-01 00:16:00,0.0,1.8985,0.0011,401.62,0.22,12.0,19.4,138.10,29.05,24.62,36.33,0.04,-272.73,-272.73,-54,558,-939,24.2,1.8,-29.0,24.1,1.9,-28.6,5.73,2.31,-29.0,27.0
2012-04-01 00:17:00,0.0,1.8984,0.0011,401.62,0.24,10.4,17.6,138.10,29.05,24.62,36.33,0.04,-272.74,-272.74,-54,558,-938,24.1,1.9,-28.9,24.1,1.9,-28.5,5.73,2.34,-29.0,26.9
2012-04-01 00:18:00,0.0,1.8983,0.0010,401.55,0.24,8.4,21.2,138.11,29.04,24.62,36.34,0.04,-272.74,-272.74,-53,558,-938,24.1,1.9,-28.9,24.1,1.9,-28.5,5.73,2.47,-29.1,26.9
2012-04-01 00:19:00,0.0,1.8981,0.0011,401.72,0.21,3.6,10.9,138.11,29.04,24.62,36.33,0.04,-272.73,-272.74,-53,558,-938,24.1,1.9,-28.7,24.1,2.0,-28.3,5.73,2.45,-29.1,26.9
2012-04-01 00:20:00,0.0,1.8981,0.0010,401.55,0.17,7.7,17.5,138.11,29.03,24.62,36.34,0.04,-272.74,-272.74,-53,558,-938,24.1,1.9,-28.6,24.1,2.0,-28.3,5.73,2.32,-29.1,26.8
2012-04-01 00:21:00,0.0,1.8976,0.0012,401.59,0.20,7.8,18.9,138.11,29.03,24.62,36.33,0.04,-272.74,-272.74,-54,558,-938,24.1,1.9,-28.4,24.1,2.0,-28.1,5.73,2.32,-29.1,26.8
2012-04-01 00:22:00,0.0,1.8980,0.0013,401.62,0.18,6.2,13.6,138.11,29.02,24.62,36.33,0.04,-272.74,-272.74,-54,558,-939,24.1,2.0,-28.3,24.1,2.1,-27.9,5.73,2.46,-29.1,26.8
2012-04-01 00:23:00,0.0,1.8986,0.0009,401.73,0.22,5.8,12.3,138.11,29.01,24.62,36.34,0.04,-272.74,-272.74,-54,558,-939,24.1,2.0,-28.1,24.1,2.1,-27.8,5.73,2.46,-29.1,26.7
2012-04-01 00:24:00,0.0,1.8991,0.0011,401.82,0.21,4.9,11.7,138.11,29.01,24.62,36.33,0.04,-272.74,-272.74,-54,558,-938,24.1,2.0,-27.9,24.1,2.1,-27.6,5.73,2.32,-29.1,26.7
2012-04-01 00:25:00,0.0,1.8988,0.0011,401.86,0.30,3.3,11.2,138.11,29.00,24.62,36.33,0.04,-272.74,-272.74,-53,558,-938,24.1,2.1,-27.6,24.1,2.2,-27.2,5.73,2.32,-29.2,26.8
2012-04-01 00:26:00,0.0,1.9007,0.0010,402.00,0.24,3.1,10.6,138.12,28.99,24.62,36.34,0.04,-272.74,-272.73,-54,558,-938,24.1,2.1,-27.7,24.0,2.2,-27.3,5.73,2.46,-29.2,26.8
2012-04-01 00:27:00,0.0,1.8994,0.0011,401.99,0.23,6.5,17.0,138.12,28.99,24.62,36.33,0.04,-272.74,-272.74,-54,558,-938,24.1,2.1,-27.7,24.0,2.2,-27.3,5.73,2.46,-29.2,26.7
2012-04-01 00:28:00,0.0,1.8994,0.0012,401.90,0.25,2.3,8.1,138.12,28.98,24.62,36.33,0.04,-272.74,-272.74,-54,558,-938,24.1,2.1,-27.6,24.0,2.2,-27.2,5.73,2.32,-29.2,26.7
2012-04-01 00:29:00,0.0,1.9007,0.0008,402.06,0.21,4.8,15.0,138.12,28.97,24.62,36.33,0.04,-272.74,-272.74,-54,558,-938,24.1,2.1,-27.5,24.0,2.2,-27.2,5.73,2.32,-29.2,26.7
2012-04-01 00:30:00,0.0,1.9006,0.0010,401.99,0.21,5.2,14.2,138.12,28.96,24.62,36.33,0.04,-272.74,-272.74,-53,558,-938,24.1,2.1,-27.5,24.0,2.2,-27.1,5.73,2.46,-29.2,26.7
2012-04-01 00:31:00,0.0,1.8987,0.0017,401.78,0.22,2.2,10.2,138.12,28.96,24.62,36.33,0.04,-272.74,-272.74,-54,558,-938,24.1,2.2,-27.4,24.0,2.2,-27.1,5.73,2.45,-29.2,26.6
2012-04-01 00:32:00,0.0,1.8992,0.0011,401.76,0.25,1.1,7.2,138.12,28.95,24.62,36.33,0.04,-272.74,-272.74,-54,558,-938,24.1,2.2,-27.3,24.0,2.2,-27.0,5.73,2.30,-29.2,26.7
2012-04-01 00:33:00,0.0,1.8983,0.0012,401.81,0.25,5.3,13.9,138.12,28.94,24.62,36.33,0.04,-272.73,-272.74,-54,558,-938,24.0,2.2,-27.3,24.0,2.3,-26.9,5.73,2.34,-29.2,26.5
2012-04-01 00:34:00,0.0,1.8988,0.0011,401.75,0.23,4.9,19.3,138.12,28.94,24.62,36.33,0.04,-272.74,-272.74,-54,558,-938,24.0,2.2,-27.2,24.0,2.3,-26.9,5.73,2.49,-29.2,26.5
2012-04-01 00:35:00,0.0,1.8997,0.0011,402.02,0.20,2.4,10.4,138.12,28.93,24.62,36.32,0.04,-272.74,-272.74,-54,558,-938,24.0,2.2,-27.0,24.0,2.3,-26.7,5.73,2.40,-29.2,26.5
2012-04-01 00:36:00,0.0,1.9001,0.0013,401.92,0.24,1.0,6.3,138.12,28.92,24.62,36.33,0.04,-272.74,-272.74,-54,557,-938,24.0,2.2,-27.2,24.0,2.3,-26.8,5.73,2.29,-29.2,26.4
2012-04-01 00:37:00,0.0,1.8986,0.0011,401.76,0.26,5.9,14.3,138.12,28.92,24.62,36.33,0.04,-272.74,-272.74,-54,558,-938,24.0,2.1,-27.5,24.0,2.2,-27.2,5.73,2.40,-29.1,26.5
2012-04-01 00:38:00,0.0,1.8988,0.0010,401.71,0.20,1.6,9.7,138.12,28.91,24.62,36.33,0.04,-272.74,-272.74,-54,557,-938,24.0,2.1,-27.8,24.0,2.2,-27.4,5.73,2.49,-29.1,26.5
2012-04-01 00:39:00,0.0,1.8996,0.0012,401.85,0.21,3.1,9.7,138.12,28.91,24.62,36.33,0.04,-272.74,-272.74,-53,558,-938,24.0,2.1,-28.0,24.0,2.1,-27.7,5.73,2.34,-29.1,26.6
2012-04-01 00:40:00,0.0,1.8999,0.0008,401.91,0.24,3.8,13.1,138.12,28.90,24.62,36.33,0.04,-272.74,-272.74,-54,557,-938,24.0,2.0,-28.2,24.0,2.1,-27.8,5.73,2.31,-29.1,26.5
2012-04-01 00:41:00,0.0,1.9002,0.0010,402.02,0.20,3.1,11.1,138.12,28.90,24.62,36.33,0.04,-272.74,-272.74,-54,557,-938,24.0,2.0,-28.2,23.9,2.1,-28.0,5.73,2.47,-29.1,26.5
2012-04-01 00:42:00,0.0,1.9016,0.0018,401.93,0.26,2.3,9.3,138.12,28.89,24.62,36.33,0.04,-272.74,-272.74,-54,557,-938,24.0,2.0,-28.4,23.9,2.1,-27.9,5.73,2.45,-29.1,26.5
2012-04-01 00:43:00,0.0,1.9028,0.0012,401.86,0.30,8.8,19.5,138.12,28.88,24.62,36.33,0.04,-272.74,-272.74,-54,558,-938,24.0,2.0,-28.3,23.9,2.1,-28.0,5.73,2.29,-29.1,26.5
2012-04-01 00:44:00,0.0,1.9052,0.0013,401.60,0.21,2.2,10.9,138.12,28.88,24.61,36.33,0.04,-272.74,-272.74,-54,557,-938,24.0,2.0,-28.2,23.9,2.1,-27.8,5.73,2.40,-29.1,27.1
2012-04-01 00:45:00,0.0,1.9058,0.0010,401.59,0.21,6.8,20.2,138.12,28.88,24.62,36.33,0.04,-272.74,-272.74,-54,557,-938,24.0,1.9,-28.7,24.0,2.0,-28.3,5.73,2.42,-28.9,27.6
2012-04-01 00:46:00,0.0,1.9061,0.0012,401.66,0.26,9.9,20.9,138.11,28.89,24.62,36.33,0.04,-272.73,-272.74,-53,557,-938,24.0,1.9,-28.8,24.0,2.0,-28.4,5.73,2.38,-28.8,27.9
2012-04-01 00:47:00,0.0,1.9062,0.0011,401.74,0.25,15.2,24.2,138.10,28.90,24.62,36.33,0.04,-272.74,-272.74,-54,557,-938,24.1,1.9,-28.7,24.1,2.0,-28.3,5.73,2.34,-28.7,28.2
2012-04-01 00:48:00,0.0,1.9063,0.0011,401.65,0.24,20.0,26.9,138.10,28.92,24.62,36.33,0.04,-272.74,-272.74,-53,557,-938,24.1,1.9,-28.6,24.1,2.0,-28.2,5.73,2.47,-28.6,28.4
2012-04-01 00:49:00,0.0,1.9063,0.0009,401.61,0.22,20.2,25.7,138.09,28.94,24.62,36.33,0.04,-272.74,-272.74,-54,557,-938,24.1,1.9,-28.5,24.1,2.0,-28.0,5.73,2.28,-28.5,28.6
2012-04-01 00:50:00,0.0,1.9079,0.0010,401.44,0.27,26.4,29.0,138.09,28.96,24.62,36.33,0.04,-272.73,-272.73,-53,557,-938,24.2,1.9,-28.4,24.2,2.0,-28.1,5.73,2.50,-28.3,28.7
2012-04-01 00:51:00,0.0,1.9065,0.0010,401.66,0.22,24.1,27.7,138.08,28.99,24.62,36.33,0.04,-272.74,-272.74,-54,557,-938,24.3,1.9,-28.7,24.2,1.9,-28.4,5.73,2.28,-28.2,28.9
2012-04-01 00:52:00,0.0,1.9064,0.0010,401.69,0.20,29.7,31.0,138.08,29.02,24.62,36.34,0.04,-272.74,-272.74,-53,558,-938,24.3,1.8,-28.9,24.3,1.9,-28.4,5.73,2.50,-28.1,28.9
2012-04-01 00:53:00,0.0,1.9069,0.0011,401.74,0.22,29.7,32.6,138.08,29.04,24.62,36.34,0.04,-272.74,-272.74,-53,557,-938,24.3,1.8,-28.9,24.3,1.9,-28.5,5.73,2.32,-28.0,28.3
2012-04-01 00:54:00,0.0,1.9079,0.0011,401.68,0.22,32.0,30.6,138.08,29.07,24.62,36.34,0.04,-272.74,-272.74,-54,557,-938,24.3,1.8,-29.0,24.3,1.9,-28.4,5.73,2.33,-28.0,27.9
2012-04-01 00:55:00,0.0,1.9065,0.0011,401.79,0.22,30.2,27.6,138.08,29.09,24.62,36.34,0.04,-272.74,-272.74,-54,558,-938,24.3,1.8,-29.0,24.3,1.9,-28.6,5.73,2.45,-28.0,27.7
2012-04-01 00:56:00,0.0,1.9057,0.0014,401.94,0.24,27.8,34.3,138.09,29.10,24.62,36.34,0.04,-272.74,-272.74,-54,558,-938,24.4,1.8,-29.1,24.3,1.9,-28.6,5.73,2.46,-28.1,27.5
2012-04-01 00:57:00,0.0,1.9054,0.0009,401.90,0.20,31.1,34.2,138.09,29.11,24.62,36.34,0.04,-272.74,-272.74,-53,559,-938,24.4,1.8,-29.0,24.3,1.9,-28.6,5.73,2.36,-28.1,27.4
2012-04-01 00:58:00,0.0,1.9062,0.0009,401.78,0.25,27.2,26.1,138.09,29.12,24.62,36.35,0.04,-272.74,-272.74,-54,558,-938,24.4,1.8,-29.1,24.4,1.9,-28.7,5.73,2.29,-28.1,27.4
2012-04-01 00:59:00,0.0,1.9060,0.0010,401.99,0.28,32.7,26.8,138.09,29.12,24.62,36.34,0.04,-272.74,-272.74,-54,559,-938,24.4,1.8,-29.2,24.3,1.9,-28.8,5.73,2.42,-28.2,27.3
2012-04-01 01:00:00,0.0,1.9059,0.0010,402.22,0.21,29.0,29.2,138.10,29.13,24.62,36.34,0.04,-272.73,-272.74,-54,559,-938,24.4,1.8,-29.3,24.3,1.9,-28.8,5.73,2.48,-28.2,27.2
2012-04-01 01:01:00,0.0,1.9060,0.0011,402.27,0.18,24.7,27.5,138.10,29.13,24.62,36.34,0.04,-272.74,-272.74,-54,559,-939,24.4,1.8,-29.4,24.3,1.8,-29.0,5.73,2.36,-28.2,27.2
2012-04-01 01:02:00,0.0,1.9068,0.0010,402.48,0.23,24.8,26.4,138.10,29.13,24.62,36.34,0.04,-272.74,-272.74,-54,559,-939,24.4,1.8,-29.3,24.3,1.8,-28.9,5.73,2.30,-28.3,27.1
2012-04-01 01:03:00,0.0,1.9072,0.0013,402.54,0.21,25.7,28.7,138.10,29.12,24.62,36.34,0.04,-272.74,-272.74,-54,559,-939,24.4,1.8,-29.2,24.3,1.9,-28.8,5.73,2.44,-28.3,27.1
2012-04-01 01:04:00,0.0,1.9076,0.0012,402.74,0.18,20.9,26.0,138.10,29.12,24.62,36.33,0.04,-272.74,-272.74,-54,559,-938,24.4,1.8,-29.1,24.3,1.9,-28.8,5.73,2.47,-28.3,27.1
2012-04-01 01:05:00,0.0,1.9070,0.0011,402.84,0.21,19.7,29.0,138.10,29.12,24.62,36.33,0.04,-272.74,-272.74,-54,559,-939,24.4,1.8,-29.0,24.3,1.9,-28.6,5.73,2.31,-28.3,27.0
2012-04-01 01:06:00,0.0,1.9062,0.0017,402.77,0.21,17.7,24.7,138.10,29.11,24.62,36.33,0.04,-272.73,-272.74,-54,559,-939,24.4,1.9,-28.8,24.3,1.9,-28.4,5.73,2.34,-28.3,27.0
2012-04-01 01:07:00,0.0,1.9027,0.0013,402.25,0.21,17.1,22.9,138.11,29.11,24.62,36.34,0.04,-272.74,-272.74,-54,559,-938,24.4,1.9,-28.6,24.3,2.0,-28.3,5.73,2.49,-28.3,27.0
2012-04-01 01:08:00,0.0,1.9040,0.0010,402.38,0.28,17.4,23.2,138.11,29.10,24.62,36.34,0.04,-272.74,-272.74,-54,559,-939,24.4,1.9,-28.5,24.3,2.0,-28.1,5.73,2.38,-28.3,27.0
2012-04-01 01:09:00,0.0,1.9025,0.0012,402.28,0.22,19.2,26.6,138.11,29.10,24.62,36.34,0.04,-272.74,-272.74,-54,559,-939,24.4,1.9,-28.3,24.3,2.0,-28.0,5.73,2.29,-28.3,27.0
2012-04-01 01:10:00,0.0,1.9047,0.0012,402.46,0.22,15.0,17.1,138.11,29.09,24.62,36.33,0.04,-272.74,-272.74,-54,559,-939,24.3,1.9,-28.3,24.3,2.0,-27.9,5.73,2.45,-28.4,27.0
2012-04-01 01:11:00,0.0,1.9053,0.0011,402.49,0.24,14.6,25.3,138.11,29.09,24.62,36.33,0.04,-272.73,-272.74,-54,559,-938,24.3,2.0,-28.2,24.3,2.0,-27.8,5.73,2.45,-28.4,27.0
2012-04-01 01:12:00,0.0,1.9037,0.0010,402.40,0.26,18.2,24.4,138.11,29.08,24.62,36.33,0.04,-272.74,-272.74,-54,559,-939,24.3,2.0,-28.1,24.3,2.1,-27.7,5.73,2.28,-28.4,26.9
2012-04-01 01:13:00,0.0,1.9032,0.0010,402.36,0.21,9.8,18.0,138.11,29.08,24.62,36.34,0.04,-272.74,-272.74,-55,559,-939,24.3,2.0,-27.9,24.3,2.1,-27.5,5.73,2.40,-28.4,26.9
2012-04-01 01:14:00,0.0,1.9035,0.0010,402.28,0.22,14.2,21.4,138.11,29.07,24.62,36.34,0.04,-272.74,-272.74,-54,559,-938,24.3,2.0,-27.8,24.3,2.1,-27.4,5.73,2.48,-28.4,26.9
2012-04-01 01:15:00,0.0,1.9035,0.0012,402.40,0.23,16.1,21.9,138.11,29.07,24.62,36.33,0.04,-272.74,-272.74,-54,559,-939,24.3,2.1,-27.7,24.3,2.1,-27.4,5.73,2.30,-28.4,26.9
2012-04-01 01:16:00,0.0,1.9036,0.0011,402.31,0.23,6.0,12.2,138.11,29.06,24.62,36.34,0.04,-272.74,-272.74,-54,559,-939,24.3,2.1,-27.6,24.3,2.1,-27.3,5.73,2.35,-28.4,26.9
2012-04-01 01:17:00,0.0,1.9038,0.0010,402.42,0.20,16.4,23.7,138.11,29.06,24.62,36.33,0.04,-272.73,-272.74,-55,559,-939,24.3,2.1,-27.6,24.3,2.2,-27.2,5.73,2.50,-28.4,27.0
2012-04-01 01:18:00,0.0,1.9039,0.0010,402.45,0.23,15.0,22.1,138.11,29.06,24.62,36.34,0.04,-272.74,-272.74,-54,559,-939,24.3,2.1,-27.6,24.3,2.2,-27.2,5.73,2.32,-28.4,27.0
2012-04-01 01:19:00,0.0,1.9057,0.0014,402.47,0.20,17.0,22.2,138.11,29.05,24.62,36.34,0.04,-272.74,-272.74,-54,559,-939,24.3,2.1,-27.5,24.3,2.2,-27.1,5.73,2.33,-28.4,27.0
2012-04-01 01:20:00,0.0,1.9045,0.0011,402.40,0.20,22.4,32.7,138.11,29.05,24.62,36.33,0.04,-272.74,-272.74,-54,559,-939,24.3,2.1,-27.5,24.3,2.2,-27.1,5.73,2.50,-28.4,26.9
2012-04-01 01:21:00,0.0,1.9054,0.0010,402.39,0.18,12.2,17.0,138.11,29.05,24.62,36.33,0.04,-272.73,-272.74,-55,560,-939,24.3,2.1,-27.3,24.3,2.2,-26.9,5.73,2.34,-28.4,27.0
2012-04-01 01:22:00,0.0,1.9049,0.0009,402.45,0.24,14.0,25.4,138.11,29.05,24.62,36.33,0.04,-272.74,-272.74,-54,559,-939,24.3,2.2,-27.2,24.3,2.2,-26.8,5.73,2.31,-28.3,27.0
2012-04-01 01:23:00,0.0,1.9053,0.0011,402.44,0.21,14.4,21.7,138.12,29.04,24.62,36.33,0.04,-272.74,-272.74,-54,559,-939,24.3,2.2,-27.2,24.3,2.3,-26.8,5.73,2.49,-28.4,26.9
2012-04-01 01:24:00,0.0,1.9045,0.0009,402.28,0.22,15.8,24.2,138.12,29.04,24.62,36.34,0.04,-272.74,-272.74,-54,559,-939,24.3,2.2,-27.2,24.3,2.3,-26.8,5.73,2.38,-28.3,26.9
2012-04-01 01:25:00,0.0,1.9050,0.0010,402.25,0.20,21.4,29.6,138.11,29.04,24.62,36.33,0.04,-272.74,-272.74,-55,559,-938,24.3,2.2,-27.2,24.3,2.2,-26.9,5.73,2.28,-28.3,26.9
2012-04-01 01:26:00,0.0,1.9044,0.0011,402.32,0.20,12.3,19.6,138.11,29.04,24.62,36.33,0.04,-272.74,-272.74,-54,559,-939,24.3,2.2,-27.2,24.3,2.2,-26.9,5.73,2.47,-28.3,27.0
2012-04-01 01:27:00,0.0,1.9048,0.0013,402.20,0.24,15.3,24.0,138.11,29.03,24.62,36.33,0.04,-272.74,-272.74,-54,559,-938,24.3,2.1,-27.3,24.3,2.2,-26.9,5.73,2.41,-28.3,26.9
2012-04-01 01:28:00,0.0,1.9060,0.0012,402.09,0.22,15.5,20.9,138.12,29.03,24.62,36.34,0.04,-272.74,-272.74,-55,559,-939,24.3,2.1,-27.4,24.3,2.2,-27.0,5.73,2.28,-28.3,26.9
2012-04-01 01:29:00,0.0,1.9075,0.0012,402.08,0.21,16.1,25.2,138.12,29.02,24.62,36.33,0.04,-272.74,-272.74,-54,559,-939,24.3,2.1,-27.5,24.3,2.2,-27.2,5.73,2.45,-28.3,26.9
2012-04-01 01:30:00,0.0,1.9068,0.0011,402.26,0.24,8.3,16.3,138.12,29.02,24.62,36.32,0.04,-272.74,-272.74,-54,559,-939,24.3,2.1,-27.7,24.3,2.2,-27.3,5.73,2.43,-28.3,26.8
2012-04-01 01:31:00,0.0,1.9072,0.0011,402.05,0.26,17.1,21.3,138.11,29.02,24.62,36.33,0.04,-272.74,-272.74,-54,559,-938,24.3,2.0,-27.8,24.3,2.1,-27.4,5.73,2.27,-28.3,26.9
2012-04-01 01:32:00,0.0,1.9079,0.0010,401.97,0.25,11.9,15.9,138.12,29.02,24.61,36.34,0.04,-272.74,-272.74,-55,559,-939,24.3,2.0,-27.9,24.3,2.1,-27.5,5.73,2.44,-28.2,26.8
2012-04-01 01:33:00,0.0,1.9073,0.0010,402.13,0.21,16.3,22.0,138.12,29.02,24.62,36.33,0.04,-272.73,-272.74,-54,559,-939,24.3,2.0,-27.9,24.3,2.1,-27.6,5.73,2.45,-28.2,26.9
2012-04-01 01:34:00,0.0,1.9089,0.0011,402.03,0.20,16.3,22.8,138.11,29.02,24.62,36.33,0.04,-272.74,-272.74,-54,560,-939,24.3,2.0,-28.1,24.3,2.1,-27.7,5.73,2.28,-28.2,26.9
2012-04-01 01:35:00,0.0,1.9091,0.0010,402.06,0.21,18.2,25.4,138.11,29.02,24.62,36.33,0.04,-272.74,-272.74,-54,559,-939,24.3,2.0,-28.3,24.3,2.0,-27.8,5.73,2.40,-28.2,26.9
2012-04-01 01:36:00,0.0,1.9083,0.0011,401.97,0.18,24.4,28.1,138.12,29.01,24.62,36.33,0.04,-272.74,-272.74,-54,559,-938,24.3,1.9,-28.4,24.3,2.0,-28.0,5.73,2.48,-28.2,26.9
2012-04-01 01:37:00,0.0,1.9073,0.0013,401.93,0.23,16.4,22.9,138.12,29.01,24.62,36.33,0.04,-272.74,-272.74,-54,559,-938,24.3,1.9,-28.5,24.3,2.0,-28.2,5.73,2.29,-28.2,26.9
2012-04-01 01:38:00,0.0,1.9073,0.0011,402.02,0.25,21.6,29.0,138.12,29.01,24.62,36.33,0.04,-272.74,-272.74,-54,559,-939,24.3,1.9,-28.6,24.3,2.0,-28.2,5.73,2.38,-28.2,26.9
2012-04-01 01:39:00,0.0,1.9075,0.0010,401.96,0.21,17.1,26.7,138.11,29.01,24.62,36.34,0.04,-272.74,-272.74,-54,559,-938,24.3,1.9,-28.5,24.3,2.0,-28.2,5.73,2.49,-28.1,27.0
2012-04-01 01:40:00,0.0,1.9068,0.0010,402.11,0.26,17.1,24.6,138.12,29.00,24.62,36.33,0.04,-272.74,-272.74,-54,559,-938,24.3,1.9,-28.5,24.3,2.0,-28.2,5.73,2.31,-28.1,26.9
2012-04-01 01:41:00,0.0,1.9069,0.0008,402.09,0.24,22.0,26.9,138.12,29.00,24.62,36.33,0.04,-272.74,-272.74,-54,559,-938,24.3,1.9,-28.5,24.3,2.0,-28.1,5.73,2.34,-28.1,26.9
2012-04-01 01:42:00,0.0,1.9067,0.0011,402.08,0.21,19.1,27.9,138.12,29.00,24.62,36.33,0.04,-272.74,-272.74,-54,559,-939,24.3,1.9,-28.4,24.3,2.0,-28.0,5.73,2.50,-28.1,26.9
2012-04-01 01:43:00,0.0,1.9064,0.0010,402.04,0.23,23.6,26.1,138.12,29.00,24.62,36.33,0.04,-272.74,-272.74,-54,559,-938,24.3,2.0,-28.3,24.3,2.0,-27.9,5.73,2.32,-28.2,26.9
2012-04-01 01:44:00,0.0,1.9062,0.0010,402.08,0.24,20.2,29.3,138.12,29.00,24.62,36.33,0.04,-272.74,-272.74,-54,559,-938,24.3,2.0,-28.3,24.3,2.0,-27.9,5.73,2.33,-28.1,26.9
2012-04-01 01:45:00,0.0,1.9067,0.0010,402.13,0.26,23.3,28.6,138.12,28.99,24.62,36.33,0.04,-272.74,-272.74,-54,560,-938,24.3,2.0,-28.3,24.3,2.0,-27.9,5.73,2.49,-28.1,26.9
2012-04-01 01:46:00,0.0,1.9064,0.0011,402.08,0.23,21.7,25.3,138.12,28.99,24.62,36.33,0.04,-272.74,-272.74,-54,559,-938,24.3,2.0,-28.3,24.3,2.0,-27.9,5.73,2.37,-28.0,26.9
2012-04-01 01:47:00,0.0,1.9059,0.0010,402.12,0.20,16.8,21.7,138.12,28.99,24.62,36.34,0.04,-272.74,-272.74,-54,559,-938,24.3,1.9,-28.4,24.3,2.0,-28.0,5.73,2.29,-28.1,27.0
2012-04-01 01:48:00,0.0,1.9057,0.0009,402.24,0.26,25.3,30.1,138.12,28.99,24.62,36.33,0.04,-272.74,-272.74,-54,559,-938,24.3,1.9,-28.5,24.3,2.0,-28.2,5.73,2.48,-28.0,26.9
2012-04-01 01:49:00,0.0,1.9060,0.0011,402.32,0.20,21.7,24.6,138.11,28.99,24.62,36.33,0.04,-272.74,-272.74,-54,560,-938,24.3,1.9,-28.6,24.3,2.0,-28.3,5.73,2.38,-28.0,27.0
2012-04-01 01:50:00,0.0,1.9059,0.0011,402.31,0.23,29.6,30.7,138.12,28.99,24.62,36.33,0.04,-272.74,-272.74,-54,559,-938,24.3,1.9,-28.7,24.3,2.0,-28.3,5.73,2.28,-28.0,26.9
2012-04-01 01:51:00,0.0,1.9058,0.0009,402.31,0.20,20.2,26.1,138.12,28.99,24.62,36.33,0.04,-272.74,-272.73,-54,560,-938,24.3,1.9,-28.8,24.3,1.9,-28.4,5.73,2.47,-28.0,26.9
2012-04-01 01:52:00,0.0,1.9058,0.0009,402.33,0.19,31.7,30.7,138.12,28.99,24.62,36.33,0.04,-272.74,-272.74,-54,559,-938,24.3,1.9,-28.8,24.3,1.9,-28.5,5.73,2.40,-28.0,26.9
2012-04-01 01:53:00,0.0,1.9059,0.0012,402.24,0.22,16.1,22.0,138.12,28.99,24.62,36.34,0.04,-272.74,-272.74,-54,560,-938,24.3,1.8,-28.9,24.3,1.9,-28.5,5.73,2.28,-28.0,26.9
2012-04-01 01:54:00,0.0,1.9060,0.0011,402.29,0.20,22.8,27.3,138.12,28.99,24.62,36.33,0.04,-272.74,-272.74,-54,559,-938,24.3,1.9,-28.8,24.3,1.9,-28.5,5.73,2.46,-27.9,26.9
2012-04-01 01:55:00,0.0,1.9059,0.0011,402.24,0.24,21.7,27.7,138.11,28.99,24.62,36.34,0.04,-272.74,-272.74,-55,560,-938,24.3,1.9,-28.8,24.3,1.9,-28.3,5.73,2.42,-27.9,26.9
2012-04-01 01:56:00,0.0,1.9060,0.0011,402.37,0.23,21.1,25.7,138.12,28.99,24.62,36.33,0.04,-272.74,-272.74,-54,560,-938,24.3,1.9,-28.7,24.3,1.9,-28.3,5.73,2.27,-27.9,27.0
2012-04-01 01:57:00,0.0,1.9058,0.0012,402.28,0.19,28.6,30.1,138.11,28.98,24.62,36.34,0.04,-272.74,-272.74,-54,559,-938,24.3,1.9,-28.6,24.3,2.0,-28.2,5.73,2.44,-27.9,27.0
2012-04-01 01:58:00,0.0,1.9057,0.0012,402.42,0.22,30.5,30.5,138.11,28.98,24.62,36.33,0.04,-272.74,-272.74,-54,559,-938,24.3,1.9,-28.5,24.3,2.0,-28.2,5.73,2.45,-27.9,27.0
2012-04-01 01:59:00,0.0,1.9060,0.0011,402.43,0.20,21.0,26.0,138.11,28.98,24.62,36.33,0.04,-272.74,-272.74,-54,560,-938,24.3,1.9,-28.4,24.3,2.0,-28.0,5.73,2.27,-27.9,27.0
2012-04-01 02:00:00,0.0,1.9064,0.0009,402.50,0.22,31.4,30.6,138.11,28.98,24.62,36.33,0.04,-272.74,-272.74,-54,560,-938,24.3,2.0,-28.3,24.3,2.0,-27.9,5.73,2.43,-27.9,27.0
2012-04-01 02:01:00,0.0,1.9062,0.0010,402.40,0.24,24.8,27.1,138.11,28.98,24.62,36.32,0.04,-272.74,-272.74,-54,559,-938,24.3,2.0,-28.2,24.3,2.0,-27.8,5.73,2.45,-27.8,27.1
2012-04-01 02:02:00,0.0,1.9066,0.0011,402.35,0.16,23.6,26.0,138.11,28.98,24.62,36.33,0.04,-272.74,-272.74,-55,560,-938,24.3,2.0,-28.2,24.3,2.1,-27.7,5.73,2.27,-27.8,27.0
2012-04-01 02:03:00,0.0,1.9062,0.0011,402.33,0.17,34.0,33.6,138.11,28.98,24.62,36.33,0.04,-272.74,-272.74,-54,560,-938,24.3,2.0,-28.0,24.4,2.1,-27.6,5.73,2.42,-27.8,27.1
2012-04-01 02:04:00,0.0,1.9060,0.0011,402.44,0.25,29.9,30.8,138.11,28.98,24.62,36.33,0.04,-272.74,-272.74,-54,560,-938,24.3,2.0,-27.9,24.3,2.1,-27.5,5.73,2.46,-27.8,27.1
2012-04-01 02:05:00,0.0,1.9060,0.0011,402.48,0.17,28.1,27.9,138.11,28.98,24.62,36.33,0.04,-272.74,-272.74,-54,560,-938,24.4,2.1,-27.7,24.4,2.1,-27.4,5.73,2.27,-27.8,27.0
2012-04-01 02:06:00,0.0,1.9055,0.0011,402.49,0.20,34.6,33.3,138.11,28.98,24.62,36.33,0.04,-272.74,-272.74,-55,560,-938,24.4,2.1,-27.6,24.4,2.2,-27.2,5.73,2.42,-27.8,27.0
2012-04-01 02:07:00,0.0,1.9050,0.0012,402.46,0.19,32.2,26.0,138.11,28.99,24.62,36.33,0.04,-272.74,-272.74,-54,560,-938,24.4,2.1,-27.4,24.4,2.2,-27.0,5.73,2.45,-27.8,27.1
2012-04-01 02:08:00,0.0,1.9045,0.0011,402.45,0.24,32.1,30.9,138.11,28.99,24.62,36.34,0.04,-272.74,-272.74,-54,560,-938,24.4,2.1,-27.2,24.4,2.2,-26.9,5.73,2.27,-27.7,27.1
2012-04-01 02:09:00,0.0,1.9055,0.0010,402.49,0.24,29.5,25.4,138.11,28.99,24.62,36.33,0.04,-272.74,-272.74,-54,560,-938,24.4,2.1,-27.3,24.4,2.2,-26.8,5.73,2.42,-27.7,27.1
2012-04-01 02:10:00,0.0,1.9062,0.0011,402.54,0.26,34.5,29.4,138.11,28.99,24.62,36.33,0.04,-272.74,-272.74,-54,560,-938,24.4,2.2,-27.2,24.4,2.2,-26.9,5.73,2.45,-27.7,27.1
2012-04-01 02:11:00,0.0,1.9057,0.0011,402.56,0.22,37.0,33.4,138.11,28.99,24.62,36.33,0.04,-272.74,-272.74,-54,560,-939,24.4,2.2,-27.1,24.4,2.2,-26.8,5.73,2.27,-27.7,27.1
2012-04-01 02:12:00,0.0,1.9063,0.0010,402.48,0.24,38.0,37.0,138.11,28.99,24.62,36.33,0.04,-272.74,-272.74,-54,560,-938,24.4,2.2,-27.1,24.4,2.3,-26.7,5.73,2.43,-27.7,27.1
2012-04-01 02:13:00,0.0,1.9067,0.0010,402.50,0.22,41.6,37.5,138.11,28.99,24.62,36.33,0.04,-272.74,-272.74,-55,560,-938,24.4,2.2,-27.1,24.4,2.2,-26.7,5.73,2.43,-27.7,27.2
2012-04-01 02:14:00,0.0,1.9069,0.0010,402.43,0.24,32.9,32.2,138.11,28.99,24.62,36.34,0.04,-272.74,-272.73,-54,560,-938,24.4,2.2,-27.1,24.4,2.3,-26.7,5.73,2.27,-27.7,27.2
2012-04-01 02:15:00,0.0,1.9076,0.0011,402.44,0.17,39.1,35.4,138.11,28.99,24.62,36.34,0.04,-272.74,-272.74,-54,560,-938,24.4,2.2,-26.9,24.4,2.3,-26.5,5.73,2.44,-27.6,27.1
2012-04-01 02:16:00,0.0,1.9071,0.0010,402.49,0.22,38.9,38.0,138.11,28.99,24.62,36.33,0.04,-272.74,-272.74,-54,560,-938,24.4,2.2,-27.0,24.4,2.3,-26.6,5.73,2.44,-27.6,27.2
2012-04-01 02:17:00,0.0,1.9066,0.0010,402.49,0.22,45.0,34.4,138.11,28.99,24.62,36.33,0.04,-272.74,-272.74,-55,560,-938,24.5,2.2,-26.8,24.5,2.3,-26.4,5.73,2.27,-27.6,27.2
2012-04-01 02:18:00,0.0,1.9066,0.0009,402.40,0.21,37.8,32.0,138.11,28.99,24.62,36.33,0.04,-272.74,-272.74,-54,561,-939,24.5,2.3,-26.7,24.5,2.3,-26.3,5.73,2.45,-27.6,27.3